Wetbulb
54.23 53.39 52.31 52.21 51.75 51.43 51.70 52.14 51.95 51.91 53.07 53.83 54.43 55.09 56.05 56.43 56.43 54.39 50.17 53.69 51.30 48.68 47.90 49.50 50.02 47.57 47.42 46.14 44.00 47.12 47.24 48.90 47.25 42.80 43.03 41.58 40.79 43.01 42.52 42.55 41.41 39.50 35.85 35.28 34.86 33.38 34.02 47.94 50.60 45.83 47.72 49.33 54.65 54.80
53.72 52.62 52.12 52.25 52.12 52.00 52.42 52.58 52.41 51.55 52.35 54.37 54.69 54.58 55.07 55.97 56.15 55.93 50.17 53.50 54.15 49.13 46.51 49.75 51.63 53.08 52.46 51.58 48.70 47.42 44.89 46.55 49.39 45.17 44.09 43.33 41.86 42.78 42.37 40.44 45.72 40.32 41.35 39.79 41.04 39.87 45.21 48.61 47.30 50.26 52.02 53.28 54.55 54.65
52.98 52.40 52.29 52.07 52.17 52.19 52.27 52.40 52.56 53.05 54.22 53.96 54.02 54.21 54.33 55.40 55.79 55.42 53.02 53.26 51.76 48.73 47.21 47.14 46.75 51.44 53.94 53.59 55.59 47.16 47.29 48.65 51.10 51.01 47.86 45.36 44.06 44.97 40.44 42.15 44.17 47.00 46.06 42.79 43.95 44.35 45.80 49.45 51.88 52.88 54.69 54.66 55.38 56.28
52.82 52.40 52.24 52.17 51.86 51.82 51.94 52.23 52.52 52.99 54.18 54.20 53.36 53.39 53.41 54.43 54.75 54.90 52.47 53.15 50.92 48.39 44.35 43.94 51.55 49.60 54.43 53.59 54.18 54.20 51.28 49.27 48.53 51.23 47.28 47.69 43.06 47.21 43.13 44.49 44.47 45.98 46.29 42.48 42.48 44.78 48.05 50.92 52.52 52.58 53.91 54.53 56.68 57.81
52.46 52.24 51.95 51.77 51.49 51.61 51.88 51.86 51.92 52.79 53.60 54.24 53.45 53.45 53.26 53.61 53.90 53.11 51.37 52.04 52.53 48.54 44.41 44.93 48.75 49.97 50.91 51.53 52.35 53.04 52.25 50.18 45.70 45.83 46.80 47.22 47.94 46.09 44.27 43.70 43.66 47.64 44.96 42.74 41.88 46.53 47.30 48.57 52.70 54.66 53.70 53.84 54.76 56.40
51.93 51.93 51.90 51.69 51.31 51.41 51.63 51.44 51.50 52.34 53.13 54.12 53.74 53.61 53.14 53.35 53.06 49.67 44.98 51.94 52.59 52.05 47.21 42.87 47.12 48.30 50.71 50.18 49.55 49.51 51.17 49.02 46.63 45.18 44.36 47.04 52.56 49.86 45.45 41.92 47.36 48.26 47.33 47.37 47.85 48.65 49.18 52.18 53.76 55.44 54.09 54.39 55.60 57.20
51.37 51.20 51.53 51.46 51.09 50.88 51.18 50.94 51.08 51.61 52.98 53.73 54.15 53.95 53.30 52.57 47.86 45.39 43.59 51.67 52.59 51.72 48.01 44.52 41.73 48.13 52.10 49.46 47.72 49.38 50.63 48.55 47.87 46.45 44.95 47.45 47.51 50.59 46.75 42.75 48.63 50.30 51.68 51.61 51.33 52.42 51.72 53.28 52.21 53.73 53.91 55.17 56.23 56.98
50.94 50.96 50.78 50.79 50.57 50.71 51.14 51.02 50.68 51.32 52.58 53.49 53.61 53.71 53.27 52.69 50.46 46.64 49.06 50.85 51.17 48.95 48.52 44.43 41.89 45.55 49.21 45.43 43.77 47.33 46.50 46.55 46.30 46.12 46.66 45.93 47.56 46.96 43.64 47.71 50.50 51.13 51.04 51.12 51.68 52.23 51.58 51.86 52.15 52.15 52.90 53.60 53.97 53.13
50.78 50.49 50.47 50.49 50.81 49.92 50.11 50.90 50.43 51.60 52.20 53.15 53.23 52.98 47.19 46.65 45.28 47.98 54.80 54.67 51.33 47.87 45.64 46.49 43.35 42.45 50.43 45.67 48.02 48.14 47.21 42.49 46.20 44.89 44.56 46.11 43.11 42.30 47.02 49.27 50.47 51.13 49.52 50.36 51.89 52.23 52.37 51.15 50.90 51.36 51.93 52.06 51.73 51.47
50.33 50.32 50.34 50.17 50.19 50.19 49.47 50.76 50.95 51.53 52.59 52.42 46.64 44.82 44.84 49.71 54.78 55.34 48.33 44.33 47.60 48.63 48.20 44.13 44.81 43.54 45.59 44.31 45.23 48.66 47.94 46.03 42.21 44.34 45.84 42.87 41.96 46.89 47.91 48.65 49.84 53.10 51.74 51.06 50.29 50.21 50.76 50.60 50.41 50.85 51.62 51.91 51.75 51.03
49.49 49.62 49.76 49.90 49.84 50.05 49.32 50.56 50.91 52.32 50.98 49.61 47.79 47.36 49.77 51.52 47.82 44.88 42.39 42.87 42.95 42.65 43.49 45.38 45.13 42.84 46.88 42.60 43.39 48.81 46.11 46.05 41.04 43.50 43.04 39.92 40.24 44.22 47.75 47.87 49.10 50.04 50.51 51.21 52.48 53.27 53.03 52.33 51.67 51.32 51.29 51.93 52.12 52.93
49.25 49.47 49.58 49.72 50.02 50.33 49.35 49.97 50.56 50.72 48.12 48.58 47.95 48.27 44.68 44.45 43.76 40.06 41.31 44.25 44.11 42.64 46.29 45.74 47.07 45.71 45.62 47.10 47.16 46.94 43.57 44.17 39.35 46.32 42.59 39.19 42.55 45.43 47.70 50.43 52.02 51.70 50.41 51.30 52.96 53.29 53.24 53.02 52.57 52.37 52.85 51.53 51.89 53.10
48.91 49.21 49.39 50.00 50.13 50.54 49.76 50.08 50.80 52.36 51.35 47.98 45.25 44.68 44.94 42.87 37.65 40.09 37.60 41.21 43.11 47.39 49.42 49.30 47.71 46.95 45.01 48.46 46.53 45.22 42.44 40.84 45.31 41.90 40.11 42.51 45.83 46.48 49.13 51.09 51.97 52.77 53.90 52.36 52.71 53.69 54.18 53.71 52.99 52.46 52.28 52.12 52.18 52.72
48.66 49.02 49.76 50.18 50.58 50.02 50.16 50.33 51.75 51.96 48.22 44.86 44.09 35.78 38.97 39.29 41.40 42.55 43.57 44.82 48.47 49.45 49.12 48.08 47.03 47.71 44.99 45.31 44.55 41.40 42.47 44.31 39.19 36.85 38.79 42.85 45.05 47.21 50.48 52.21 51.09 51.11 52.04 53.28 53.53 54.13 54.24 53.47 52.27 52.31 52.31 52.35 52.68 52.85
49.25 49.75 50.35 50.16 50.53 50.41 50.40 50.68 52.36 50.91 47.79 44.36 44.56 35.87 37.65 42.90 46.07 47.72 48.46 47.68 48.73 50.41 49.06 46.58 47.32 47.75 46.92 45.20 43.74 42.43 40.46 38.82 40.18 39.53 43.10 45.77 45.65 47.91 50.76 52.53 52.56 52.03 52.79 53.00 52.23 52.89 52.75 52.04 51.50 51.70 51.82 51.89 53.74 53.98
49.65 49.95 48.98 50.18 50.50 50.15 49.99 51.53 50.86 49.77 48.13 45.50 43.93 40.61 42.31 42.02 44.08 45.20 45.53 44.64 48.34 49.57 49.18 48.22 46.55 45.30 45.03 41.59 41.35 40.69 40.09 38.92 41.22 45.33 49.17 49.01 48.91 48.84 51.30 53.37 53.88 53.93 51.59 51.42 51.60 52.51 51.65 51.11 51.02 51.35 51.54 51.70 52.95 54.05
49.51 46.39 50.37 50.84 50.52 50.34 51.32 49.63 48.64 46.15 45.41 43.35 39.83 41.82 42.73 42.90 42.78 43.25 44.70 45.51 48.41 47.94 44.66 45.59 41.63 42.54 45.37 41.35 39.44 43.35 41.61 45.05 49.60 51.45 52.67 51.96 50.68 49.69 50.02 53.64 54.70 54.46 52.70 51.61 51.72 52.19 52.00 51.69 51.26 51.68 51.38 52.35 52.06 53.43
46.33 49.85 51.48 51.19 50.02 51.13 49.85 49.00 46.89 45.28 41.35 40.93 37.92 39.77 42.52 44.45 43.81 43.98 44.26 44.92 45.92 44.65 45.71 43.27 47.32 43.78 41.29 40.00 42.24 46.07 48.02 50.63 51.52 51.32 51.97 51.91 51.71 50.23 51.13 50.19 52.10 52.34 52.41 52.65 52.95 52.50 51.42 51.16 50.97 51.36 52.29 52.83 52.47 52.81
48.51 49.50 50.42 51.47 51.35 49.20 45.84 45.73 46.49 39.60 39.10 38.85 39.55 40.60 41.86 42.88 45.04 46.21 44.83 43.97 45.68 47.32 46.87 45.20 43.27 42.12 41.75 43.60 44.78 47.33 49.48 50.71 49.90 50.80 50.22 49.59 50.16 50.51 50.91 51.19 50.87 50.63 51.42 52.30 53.10 53.30 53.75 53.11 52.71 52.69 52.15 52.26 53.41 53.70
50.26 50.69 50.81 51.51 52.00 46.96 45.32 44.77 48.53 42.61 39.52 40.43 39.36 38.90 39.68 40.15 41.84 42.34 42.63 42.58 45.59 46.09 44.30 43.90 44.23 44.35 45.32 46.48 47.73 48.76 48.23 50.15 50.27 48.87 49.43 49.62 51.66 51.47 51.23 51.14 50.93 51.45 52.64 54.23 54.78 50.26 54.43 54.95 53.33 53.12 54.00 53.22 53.38 53.32
49.98 50.02 52.19 51.46 48.62 47.92 45.67 42.93 40.94 40.36 41.52 40.64 41.32 39.90 40.50 41.06 40.81 40.80 41.11 43.34 43.50 43.54 43.05 45.22 45.48 47.19 47.73 48.64 50.01 50.18 48.27 51.04 50.70 50.40 50.22 49.35 51.49 51.26 53.34 54.59 53.45 52.66 51.79 52.96 53.56 53.94 52.33 53.86 54.63 53.75 54.30 54.31 54.97 55.35
48.83 52.31 49.33 48.99 46.20 45.20 43.02 42.10 39.32 40.60 39.03 39.67 40.08 40.88 38.92 38.29 38.81 40.93 42.55 41.75 41.48 42.90 44.17 44.40 47.03 48.37 47.62 46.75 48.75 48.75 49.46 50.74 51.45 50.88 48.25 48.75 50.44 50.33 51.64 53.94 53.55 53.91 53.79 52.74 54.01 54.05 54.27 54.49 54.55 54.02 53.41 54.84 53.32 54.92
51.09 50.06 47.99 46.99 42.67 39.03 39.64 44.41 39.57 41.90 37.99 38.92 41.16 39.75 39.23 39.68 41.50 43.94 40.60 41.90 42.60 45.86 46.06 45.34 46.54 47.91 47.52 48.03 47.75 47.90 48.69 49.35 49.57 50.31 50.56 49.97 49.79 51.00 52.99 55.14 53.46 52.84 52.77 53.09 55.01 54.41 54.49 48.99 53.38 54.74 54.69 54.82 55.20 54.75
49.84 45.41 42.68 41.77 41.33 36.19 42.84 40.75 43.12 42.04 42.61 41.71 42.16 39.64 40.43 40.55 43.81 42.56 40.73 42.11 46.73 48.55 51.32 51.48 50.47 46.14 45.71 46.55 46.38 47.66 48.37 50.25 50.46 50.12 49.94 49.83 50.78 52.03 53.89 54.06 54.09 54.14 53.66 55.00 55.39 55.26 55.56 55.52 50.48 55.66 55.87 55.27 55.06 55.24
38.77 36.38 38.73 34.56 41.79 40.14 38.90 39.40 41.07 41.61 40.15 42.01 41.70 41.15 41.83 45.73 43.16 43.00 42.01 45.63 48.70 48.21 50.18 51.88 52.59 50.23 46.30 46.42 48.14 50.16 51.94 51.47 50.52 49.92 50.99 51.68 52.71 53.43 53.72 53.82 53.45 54.11 54.45 53.86 54.53 54.71 54.71 54.55 54.88 54.96 55.44 56.15 55.47 55.32
34.51 39.32 36.02 39.32 39.67 37.88 39.19 38.32 40.01 38.69 41.30 41.46 41.88 43.92 46.16 44.30 42.45 41.76 45.86 47.62 48.80 49.73 48.73 50.53 51.35 51.93 50.14 49.41 49.61 50.43 52.01 55.81 53.45 53.07 53.24 53.98 53.86 53.46 52.45 52.00 50.99 51.39 52.97 54.73 53.68 52.40 51.94 51.52 51.22 52.22 53.72 53.27 46.13 52.54
35.20 36.87 41.04 42.92 40.74 42.00 41.78 43.49 42.10 39.62 38.39 39.30 41.42 42.95 42.03 40.10 41.00 45.55 49.81 50.58 49.66 49.93 50.28 53.00 53.44 52.80 52.16 52.48 52.25 54.15 54.68 54.00 53.24 54.94 55.59 56.07 55.99 55.69 53.84 51.97 51.58 52.39 54.52 54.93 54.33 53.65 52.82 51.58 49.82 49.89 50.22 51.25 51.42 52.69
38.80 40.50 35.95 39.38 38.54 40.29 40.47 41.37 39.33 37.93 38.95 41.38 43.77 41.62 40.71 40.54 40.78 45.40 47.07 50.53 52.21 52.36 52.62 54.23 55.17 54.36 54.01 53.67 54.22 55.61 55.43 55.06 54.79 50.86 49.29 48.03 46.73 46.71 48.06 50.67 50.72 45.58 52.39 53.65 53.84 53.86 53.41 52.93 52.43 51.94 50.23 49.70 50.16 51.45
39.15 41.08 39.69 36.99 37.96 38.17 39.11 39.33 39.35 40.97 44.64 45.37 42.61 41.80 44.10 47.50 48.91 48.56 49.96 51.46 52.90 52.56 52.24 53.80 54.55 55.10 54.14 55.21 53.43 53.42 54.88 50.90 48.47 45.31 43.93 43.05 43.78 45.36 45.85 46.20 46.70 47.14 46.94 47.58 43.10 44.77 47.32 49.31 50.05 49.71 49.69 49.47 50.07 50.76
37.53 39.70 37.21 37.52 36.80 36.61 39.99 42.02 43.07 46.47 47.97 47.20 48.03 47.44 47.05 47.95 50.22 52.72 52.24 52.39 52.03 52.33 53.15 53.55 53.58 53.05 49.90 48.26 46.12 45.73 45.22 46.47 47.39 45.74 43.41 43.15 44.45 45.81 46.21 46.99 47.10 46.94 47.19 48.03 48.10 48.42 43.82 46.61 46.05 49.15 49.20 49.49 49.15 49.13
39.40 38.61 37.60 37.58 37.42 40.11 42.94 46.02 47.58 48.76 48.92 48.03 48.71 46.74 46.06 48.49 51.62 53.91 53.44 53.80 53.66 53.62 53.15 50.96 49.33 48.61 46.91 46.44 45.57 44.69 43.95 45.19 46.38 46.63 46.30 45.98 46.09 46.56 46.99 47.01 46.75 47.10 47.95 48.49 48.39 47.96 48.15 47.80 48.03 47.94 48.25 48.33 48.64 48.35
37.77 37.61 37.90 37.99 39.91 44.04 46.66 46.05 46.64 47.01 48.08 47.97 47.61 48.64 49.42 49.67 49.00 51.95 54.51 53.94 52.87 52.64 50.35 51.52 50.99 50.03 50.02 48.14 46.52 45.57 42.32 46.10 46.36 46.76 47.28 47.03 46.96 46.70 46.42 46.68 47.17 48.25 48.62 48.45 48.01 47.77 47.82 47.30 47.36 47.72 47.56 47.60 47.96 48.26
38.88 41.61 42.09 41.12 41.47 43.89 46.59 46.21 46.71 46.56 48.06 48.08 48.56 49.68 49.62 49.67 48.22 51.39 51.96 50.86 51.89 50.43 49.01 48.35 48.97 48.70 47.17 46.95 46.85 45.96 44.25 45.60 42.11 39.22 39.35 39.19 39.85 43.09 47.43 48.32 49.38 49.56 48.87 48.23 47.99 47.80 47.35 47.20 47.06 47.24 47.52 47.57 47.87 48.39
MSLP
1022.10 1022.09 1022.10 1021.98 1021.83 1021.81 1021.51 1021.30 1021.06 1020.86 1020.56 1020.21 1019.82 1019.48 1019.13 1018.87 1018.68 1018.65 1018.54 1018.20 1018.25 1017.56 1015.90 1014.98 1014.57 1014.16 1013.87 1013.66 1013.32 1012.27 1011.44 1010.78 1010.38 1010.27 1010.33 1010.58 1010.32 1009.63 1009.92 1009.74 1010.01 1010.65 1011.75 1012.49 1012.64 1011.43 1010.07 1008.54 1008.86 1008.88 1008.87 1009.23 1009.50 1010.11
1021.86 1021.85 1021.81 1021.80 1021.65 1021.50 1021.30 1021.09 1020.86 1020.69 1020.32 1019.98 1019.69 1019.46 1019.11 1018.86 1018.63 1018.50 1018.57 1017.85 1017.76 1017.83 1015.85 1014.56 1013.88 1013.39 1013.24 1013.07 1013.20 1012.73 1012.36 1011.80 1011.18 1010.94 1010.72 1010.20 1010.20 1010.17 1010.35 1009.85 1009.33 1010.09 1009.85 1010.29 1010.48 1009.57 1008.66 1008.15 1008.03 1007.82 1008.12 1008.57 1009.22 1009.57
1021.57 1021.57 1021.56 1021.49 1021.40 1021.26 1021.06 1020.92 1020.64 1020.37 1020.01 1019.78 1019.64 1019.38 1019.11 1018.80 1018.51 1018.42 1018.14 1017.96 1017.77 1017.11 1015.00 1013.90 1012.27 1011.52 1011.46 1011.60 1011.95 1012.85 1012.04 1011.36 1011.11 1011.13 1011.04 1010.86 1010.55 1010.13 1010.51 1009.58 1009.62 1009.29 1009.13 1009.38 1009.56 1008.84 1008.41 1008.07 1007.84 1007.84 1008.06 1008.14 1008.47 1008.72
1021.36 1021.37 1021.36 1021.26 1021.08 1020.97 1020.72 1020.62 1020.41 1020.13 1019.82 1019.55 1019.40 1019.15 1018.94 1018.71 1018.47 1018.20 1018.02 1017.79 1017.76 1017.35 1016.07 1012.87 1011.39 1011.00 1010.25 1010.43 1010.88 1010.96 1011.10 1011.02 1011.20 1011.15 1011.30 1011.14 1011.13 1010.55 1010.30 1009.91 1009.27 1008.76 1008.82 1008.86 1009.01 1008.63 1008.46 1008.02 1007.68 1007.66 1007.99 1008.33 1008.71 1009.09
1021.01 1021.04 1021.05 1021.02 1020.84 1020.65 1020.49 1020.23 1020.10 1019.86 1019.60 1019.37 1019.26 1018.97 1018.69 1018.46 1018.23 1017.92 1017.69 1017.27 1017.34 1017.55 1016.22 1013.56 1011.85 1010.01 1009.49 1009.84 1009.96 1010.49 1011.11 1011.67 1011.98 1011.82 1011.75 1011.33 1010.93 1011.05 1010.68 1010.42 1009.00 1008.07 1007.87 1008.30 1008.24 1007.76 1007.79 1007.74 1007.63 1007.79 1008.20 1008.37 1008.47 1008.91
1020.61 1020.71 1020.76 1020.71 1020.59 1020.43 1020.31 1020.06 1019.80 1019.54 1019.30 1019.03 1018.96 1018.74 1018.47 1018.31 1018.11 1017.87 1017.26 1016.82 1016.91 1017.09 1016.54 1014.59 1011.84 1010.10 1009.48 1009.30 1009.81 1010.27 1010.69 1011.53 1011.73 1011.59 1011.32 1010.90 1010.49 1011.05 1011.14 1009.76 1007.93 1007.16 1007.27 1007.43 1007.35 1007.39 1007.57 1007.57 1007.86 1008.08 1008.34 1008.45 1008.62 1009.01
1020.36 1020.37 1020.37 1020.37 1020.25 1020.17 1019.99 1019.77 1019.51 1019.27 1018.97 1018.67 1018.47 1018.39 1018.18 1018.09 1018.34 1018.05 1017.47 1017.02 1016.89 1016.91 1016.30 1014.69 1012.83 1010.32 1009.26 1009.03 1009.67 1010.15 1010.43 1010.64 1010.77 1010.91 1010.68 1010.34 1010.44 1010.46 1010.79 1009.88 1007.80 1007.59 1007.43 1007.31 1007.21 1007.35 1007.92 1008.01 1007.99 1008.02 1008.31 1008.58 1009.03 1009.28
1020.10 1020.13 1020.09 1020.03 1019.99 1019.86 1019.64 1019.46 1019.18 1018.93 1018.56 1018.25 1018.13 1017.95 1017.72 1017.54 1017.56 1017.32 1016.01 1015.91 1016.86 1017.04 1016.31 1015.12 1013.02 1011.18 1009.31 1009.38 1009.69 1009.92 1010.45 1010.44 1010.38 1010.07 1009.91 1009.72 1009.99 1009.99 1009.66 1008.30 1007.33 1006.94 1006.76 1006.97 1006.94 1007.36 1007.62 1007.62 1008.05 1008.27 1008.70 1009.12 1009.36 1009.61
1019.79 1019.85 1019.92 1019.88 1019.76 1019.52 1019.26 1019.14 1018.81 1018.49 1018.19 1017.81 1017.64 1017.39 1017.60 1017.31 1017.03 1016.09 1015.58 1015.32 1016.00 1016.51 1015.61 1014.69 1013.37 1011.72 1009.80 1009.85 1009.81 1010.03 1009.96 1010.43 1009.99 1009.74 1009.65 1009.64 1009.69 1009.30 1008.18 1007.51 1007.59 1007.46 1007.32 1006.85 1006.76 1007.25 1007.70 1007.91 1008.28 1008.64 1008.97 1009.24 1009.53 1009.68
1019.56 1019.59 1019.61 1019.48 1019.37 1019.27 1019.08 1018.88 1018.51 1018.05 1017.70 1017.39 1017.44 1017.38 1016.92 1016.28 1015.64 1015.56 1015.56 1015.91 1015.82 1015.34 1015.14 1014.29 1013.29 1012.27 1011.00 1010.27 1009.91 1010.12 1009.93 1009.95 1009.98 1009.61 1009.58 1009.53 1008.88 1007.35 1006.89 1006.78 1006.50 1006.20 1006.39 1006.96 1007.11 1007.42 1007.63 1007.91 1008.32 1008.57 1008.62 1008.68 1008.96 1009.45
1019.34 1019.38 1019.43 1019.33 1019.15 1018.92 1018.72 1018.62 1018.34 1017.82 1017.26 1017.31 1017.43 1017.25 1016.50 1015.91 1015.82 1015.75 1015.53 1015.42 1015.06 1014.72 1014.09 1013.20 1012.67 1012.05 1010.57 1010.44 1010.11 1010.06 1010.13 1010.00 1009.93 1009.88 1009.83 1009.59 1008.84 1007.51 1006.88 1006.66 1006.16 1006.06 1006.15 1006.27 1006.17 1006.04 1006.29 1006.58 1007.36 1007.88 1008.31 1008.52 1009.00 1009.38
1019.13 1019.15 1019.12 1019.11 1018.87 1018.61 1018.40 1018.32 1018.17 1017.98 1017.85 1017.94 1017.93 1017.55 1017.13 1016.45 1016.02 1015.85 1014.91 1014.29 1013.95 1013.14 1012.49 1012.14 1011.33 1011.30 1010.52 1010.13 1010.27 1010.13 1009.93 1009.84 1009.66 1009.65 1009.75 1009.38 1008.37 1007.62 1007.22 1006.81 1006.37 1006.07 1005.86 1005.76 1005.55 1005.68 1006.04 1006.49 1006.75 1007.31 1007.68 1008.20 1008.48 1009.01
1018.89 1018.90 1018.83 1018.77 1018.51 1018.20 1018.10 1018.06 1017.99 1017.84 1017.68 1017.65 1017.63 1017.37 1016.91 1016.16 1015.61 1014.91 1013.99 1013.35 1012.95 1012.36 1011.40 1011.31 1011.10 1010.45 1010.23 1010.05 1010.04 1009.85 1009.75 1009.80 1009.43 1009.62 1009.64 1009.05 1008.27 1007.81 1007.61 1007.11 1006.41 1005.68 1005.14 1005.04 1004.96 1005.05 1005.34 1005.81 1006.32 1006.77 1007.24 1007.48 1008.07 1008.68
1018.66 1018.55 1018.48 1018.37 1018.09 1017.93 1017.88 1017.86 1017.80 1017.70 1017.76 1017.58 1017.08 1016.77 1016.33 1015.14 1014.25 1013.74 1013.49 1013.40 1012.88 1012.18 1011.47 1011.38 1011.00 1010.33 1009.95 1010.00 1009.94 1009.75 1009.65 1009.55 1009.68 1009.88 1009.52 1008.80 1008.32 1008.08 1007.75 1007.24 1006.57 1005.78 1004.90 1004.51 1004.45 1004.66 1004.98 1005.41 1005.79 1006.19 1006.61 1007.07 1007.72 1008.21
1018.33 1018.15 1018.04 1017.83 1017.56 1017.55 1017.60 1017.65 1017.61 1017.69 1017.54 1017.19 1016.77 1016.23 1015.46 1014.27 1013.70 1013.68 1013.46 1013.10 1012.37 1011.94 1011.55 1011.26 1010.84 1010.42 1009.92 1009.72 1009.54 1009.57 1009.69 1009.60 1009.60 1009.52 1009.16 1008.63 1008.43 1008.37 1007.97 1007.55 1007.11 1006.62 1006.29 1004.64 1004.44 1004.48 1004.82 1005.34 1005.70 1005.95 1006.36 1006.88 1007.42 1007.86
1018.01 1017.78 1017.45 1017.28 1017.16 1017.21 1017.40 1017.50 1017.56 1017.56 1017.21 1016.96 1016.35 1015.74 1014.69 1014.23 1013.80 1013.50 1013.37 1012.85 1012.28 1011.77 1011.35 1011.17 1010.82 1010.48 1010.21 1009.69 1009.43 1009.06 1009.22 1009.17 1009.15 1009.03 1008.80 1008.61 1008.45 1008.36 1008.17 1007.83 1007.45 1007.13 1006.65 1006.10 1004.92 1004.69 1004.95 1005.27 1005.59 1005.81 1006.39 1006.84 1007.23 1007.56
1017.92 1017.73 1017.19 1016.94 1016.85 1017.14 1017.36 1017.53 1017.48 1017.29 1016.80 1016.26 1015.66 1015.06 1014.83 1014.38 1013.87 1013.38 1012.99 1012.58 1012.24 1012.08 1011.71 1011.34 1010.94 1010.42 1010.27 1009.69 1009.20 1009.02 1009.02 1008.96 1008.69 1008.50 1008.27 1008.30 1008.28 1008.28 1008.14 1007.78 1007.52 1007.37 1006.97 1006.41 1005.88 1005.41 1005.05 1005.37 1005.68 1006.21 1006.65 1006.55 1006.97 1007.24
1017.90 1017.55 1017.30 1017.23 1017.27 1017.33 1017.39 1017.40 1017.14 1016.70 1016.33 1015.66 1015.53 1014.63 1014.33 1013.74 1013.27 1012.81 1012.48 1012.37 1012.54 1012.16 1011.87 1011.37 1011.00 1010.76 1010.31 1009.65 1009.18 1008.89 1008.70 1008.49 1008.34 1008.18 1008.38 1008.10 1008.12 1007.97 1007.77 1007.67 1007.48 1007.12 1006.73 1006.41 1006.05 1005.91 1005.76 1005.55 1005.87 1006.01 1005.99 1006.27 1006.78 1007.18
1017.68 1017.55 1017.42 1017.33 1017.34 1017.38 1017.29 1017.14 1017.02 1016.59 1015.72 1015.28 1014.76 1014.41 1014.01 1013.27 1012.41 1011.95 1011.85 1011.80 1011.97 1011.98 1011.87 1011.38 1011.05 1010.58 1009.96 1009.42 1009.17 1008.94 1008.66 1008.35 1008.31 1008.33 1008.03 1007.99 1007.77 1007.57 1007.37 1007.11 1007.14 1006.94 1006.60 1006.38 1006.03 1005.91 1005.79 1005.52 1005.40 1005.51 1005.99 1006.42 1006.64 1006.68
1017.42 1017.31 1017.16 1017.20 1017.22 1017.08 1016.52 1016.42 1016.35 1016.09 1015.54 1014.64 1014.44 1014.11 1013.62 1012.88 1011.86 1011.45 1011.33 1011.44 1011.74 1011.85 1011.66 1011.09 1010.25 1009.67 1009.38 1008.99 1008.85 1008.76 1008.65 1008.54 1008.56 1008.33 1007.97 1007.73 1007.56 1007.42 1007.27 1007.18 1007.01 1006.79 1006.52 1006.20 1005.83 1005.62 1005.50 1005.16 1005.12 1005.17 1005.37 1005.65 1005.97 1006.12
1017.26 1016.95 1016.86 1016.97 1017.15 1017.16 1016.84 1016.32 1016.14 1015.83 1015.13 1014.66 1013.80 1013.65 1012.93 1012.14 1011.74 1011.28 1011.00 1010.94 1011.41 1011.18 1010.69 1009.70 1009.25 1008.76 1008.49 1008.36 1008.28 1008.27 1008.28 1008.41 1008.24 1008.18 1008.06 1008.07 1007.63 1007.56 1007.23 1006.99 1006.83 1006.57 1006.34 1006.17 1006.05 1005.60 1005.47 1005.47 1005.08 1004.83 1004.88 1004.98 1005.02 1005.14
1016.83 1016.72 1016.91 1016.93 1016.93 1016.83 1016.72 1016.24 1016.16 1015.56 1015.25 1014.12 1013.57 1012.96 1012.56 1011.94 1011.26 1010.70 1010.45 1010.63 1010.36 1009.58 1009.02 1008.57 1008.08 1007.87 1007.85 1007.84 1007.70 1007.78 1007.69 1007.75 1007.63 1007.63 1007.65 1007.83 1007.70 1007.32 1006.91 1006.57 1006.71 1006.57 1006.41 1006.36 1006.19 1005.99 1005.80 1005.64 1005.50 1005.13 1004.95 1004.75 1004.72 1004.79
1016.64 1016.76 1016.72 1016.78 1016.92 1016.58 1015.97 1015.63 1015.69 1014.91 1014.55 1013.46 1012.75 1012.38 1011.86 1011.26 1010.39 1009.99 1009.98 1009.67 1009.40 1008.91 1008.66 1008.19 1007.42 1006.91 1007.06 1006.98 1007.23 1007.26 1007.19 1007.23 1007.42 1007.19 1007.17 1007.20 1006.99 1006.75 1006.69 1006.41 1006.35 1006.34 1006.21 1006.06 1006.06 1005.96 1005.95 1005.96 1005.64 1005.54 1005.50 1005.22 1005.15 1005.14
1016.89 1016.89 1016.65 1016.52 1016.43 1016.03 1015.36 1015.05 1014.62 1014.08 1013.36 1012.83 1012.09 1011.47 1010.77 1010.23 1009.75 1009.60 1009.51 1009.30 1008.96 1008.67 1008.35 1007.92 1007.45 1007.00 1006.89 1006.86 1006.85 1006.68 1006.63 1006.77 1006.68 1006.62 1006.51 1006.59 1006.69 1006.38 1006.49 1006.41 1006.25 1006.09 1006.11 1006.13 1005.95 1005.84 1005.91 1006.04 1006.10 1005.96 1006.02 1005.97 1005.83 1005.68
1017.21 1016.93 1016.84 1016.35 1015.93 1015.69 1015.04 1014.27 1013.76 1013.42 1012.90 1012.22 1011.42 1010.69 1010.05 1009.62 1009.40 1009.03 1008.88 1008.96 1008.69 1008.59 1008.34 1007.93 1007.47 1007.21 1007.05 1006.72 1006.57 1006.37 1006.16 1006.18 1006.24 1006.24 1005.93 1005.90 1005.96 1006.22 1006.33 1006.43 1006.00 1005.91 1006.06 1006.28 1006.08 1006.03 1006.05 1006.13 1006.23 1006.20 1006.15 1006.12 1006.11 1006.15
1016.95 1016.31 1016.30 1015.59 1015.19 1015.06 1014.37 1013.70 1013.13 1012.95 1012.39 1011.60 1010.80 1010.08 1009.53 1009.27 1008.95 1008.49 1008.37 1008.40 1008.37 1008.32 1008.21 1007.98 1007.68 1007.29 1007.12 1007.02 1006.81 1006.44 1006.16 1005.87 1005.85 1005.77 1005.63 1005.67 1005.89 1006.13 1006.26 1006.30 1006.28 1006.01 1005.87 1005.84 1005.91 1006.07 1006.14 1006.16 1006.10 1006.01 1005.97 1005.97 1005.95 1005.97
1016.34 1015.75 1015.32 1014.95 1014.90 1014.60 1013.98 1013.27 1012.76 1012.49 1011.86 1010.97 1010.17 1009.66 1009.44 1009.05 1008.47 1008.14 1008.01 1008.07 1008.18 1008.00 1007.87 1007.59 1007.40 1007.22 1007.10 1006.90 1006.64 1006.26 1005.94 1005.68 1005.60 1005.51 1005.46 1005.67 1005.86 1005.78 1005.93 1006.15 1006.09 1005.99 1005.70 1005.69 1005.86 1006.03 1006.07 1006.05 1006.00 1005.88 1005.74 1005.60 1005.50 1005.45
1015.62 1015.05 1014.89 1014.74 1014.75 1014.28 1013.77 1012.87 1012.35 1011.66 1010.95 1010.18 1009.81 1009.60 1009.33 1008.94 1008.54 1008.33 1007.94 1007.86 1007.79 1007.60 1007.40 1007.03 1006.76 1006.73 1006.58 1006.48 1006.38 1006.28 1006.08 1005.84 1005.74 1005.59 1005.52 1005.69 1006.17 1006.27 1006.12 1006.00 1005.89 1005.75 1005.85 1005.86 1005.82 1005.87 1005.92 1005.87 1005.79 1005.69 1005.61 1005.46 1005.27 1005.07
1015.26 1014.77 1014.74 1014.44 1014.19 1013.62 1012.94 1012.39 1011.48 1010.56 1009.92 1009.69 1009.72 1009.57 1009.21 1008.79 1008.39 1008.20 1007.55 1007.54 1007.23 1007.10 1006.78 1006.39 1006.08 1006.04 1006.10 1006.18 1006.31 1006.23 1006.12 1006.17 1006.27 1006.13 1006.43 1006.75 1006.68 1006.76 1006.64 1006.50 1006.44 1006.38 1006.28 1006.00 1005.79 1005.80 1005.75 1005.66 1005.52 1005.48 1005.31 1005.16 1004.89 1004.81
1014.53 1014.19 1014.22 1013.68 1013.24 1012.44 1011.35 1010.78 1010.34 1009.80 1009.59 1009.41 1009.31 1009.34 1008.48 1007.55 1007.40 1006.84 1006.64 1006.97 1006.76 1006.52 1006.32 1006.16 1006.01 1006.05 1006.24 1006.33 1006.53 1006.63 1006.65 1006.57 1006.51 1006.65 1006.91 1007.18 1007.42 1007.43 1007.28 1007.08 1006.84 1006.65 1006.48 1006.27 1006.08 1005.85 1005.61 1005.45 1005.36 1005.46 1005.36 1005.01 1004.80 1004.62
1013.53 1013.66 1013.50 1012.90 1012.07 1010.97 1010.31 1009.95 1009.79 1009.73 1009.48 1009.01 1008.65 1008.75 1008.46 1007.67 1006.92 1006.47 1006.43 1006.25 1006.13 1005.92 1005.93 1006.05 1006.14 1006.36 1006.48 1006.54 1006.62 1006.93 1007.43 1007.49 1007.42 1007.47 1007.64 1007.66 1007.64 1007.58 1007.43 1007.22 1007.00 1006.77 1006.60 1006.45 1006.33 1006.21 1006.07 1005.88 1005.76 1005.64 1005.38 1005.08 1004.78 1004.58
1012.76 1012.61 1012.28 1011.84 1011.07 1010.29 1009.90 1009.46 1009.15 1009.13 1008.73 1008.36 1007.85 1007.97 1007.55 1007.71 1007.05 1006.39 1006.33 1006.30 1006.15 1005.79 1006.11 1006.21 1006.46 1006.77 1006.80 1006.93 1007.06 1007.28 1007.48 1007.86 1007.93 1007.88 1007.85 1007.86 1007.87 1007.83 1007.66 1007.43 1007.17 1006.94 1006.78 1006.69 1006.61 1006.47 1006.30 1006.15 1005.95 1005.73 1005.47 1005.15 1004.83 1004.48
1011.59 1011.43 1011.21 1011.09 1010.53 1009.92 1009.46 1009.27 1008.82 1008.50 1008.23 1007.89 1007.56 1007.46 1007.52 1007.34 1006.94 1006.74 1006.43 1006.39 1006.39 1006.21 1006.33 1006.53 1006.71 1006.95 1007.13 1007.24 1007.52 1007.92 1008.09 1008.30 1008.37 1008.34 1008.42 1008.49 1008.43 1008.28 1008.06 1007.83 1007.58 1007.38 1007.19 1007.10 1007.01 1006.83 1006.61 1006.37 1006.09 1005.81 1005.44 1005.07 1004.67 1004.28
Wind_Speed
7 7 8 9 9 10 10 11 11 12 14 12 12 12 10 9 6 1 4 3 1 3 8 8 11 8 4 0 2 5 6 2 3 2 4 4 4 3 1 3 4 8 8 5 3 4 3 7 4 7 8 2 6 6
7 7 7 9 10 10 11 11 11 12 13 11 10 12 13 9 6 2 2 2 2 4 8 3 12 16 13 14 2 2 3 2 4 2 1 3 2 3 4 4 3 2 7 8 8 9 4 4 3 5 7 7 6 7
8 7 8 8 9 10 11 12 12 14 13 9 10 11 11 11 8 4 2 2 2 3 8 5 10 10 12 19 14 5 3 5 2 4 2 1 2 4 3 5 3 3 3 4 4 3 4 4 3 3 6 6 6 6
7 8 8 8 9 10 10 11 12 14 14 8 10 11 11 11 9 7 2 1 0 3 5 8 3 7 2 6 16 20 9 3 3 2 1 3 0 1 2 2 2 4 5 5 1 2 0 2 4 4 5 2 2 2
7 8 8 9 9 9 10 11 12 13 14 8 10 11 11 11 10 6 4 4 5 2 4 8 14 8 6 11 12 15 14 9 1 3 2 3 3 2 1 2 4 5 6 5 6 7 5 4 4 3 5 7 9 7
6 7 8 8 8 9 10 11 11 12 13 11 10 11 11 10 10 3 3 1 4 3 3 6 5 6 4 5 10 11 9 4 3 4 4 3 1 5 3 3 5 1 2 4 4 5 3 2 3 1 3 5 4 4
7 8 9 9 9 9 10 10 11 12 13 10 9 10 10 8 0 2 3 1 3 2 3 5 6 6 4 3 3 3 6 3 4 3 3 3 4 10 4 5 7 1 4 3 2 6 2 2 5 8 7 2 1 2
8 8 9 9 9 9 10 11 12 13 12 11 11 12 12 11 7 5 4 12 5 2 3 3 6 6 3 2 2 1 3 2 3 3 1 4 3 2 4 13 8 8 8 5 7 7 3 2 4 4 2 3 3 2
7 7 8 8 10 10 10 10 12 12 15 10 12 13 3 1 2 3 3 5 4 3 3 3 3 4 5 2 0 1 2 3 1 4 3 4 2 6 9 11 6 6 8 11 4 3 5 4 6 4 5 5 6 5
7 7 7 8 9 10 10 9 12 14 12 10 2 2 2 2 7 3 3 1 3 3 2 4 2 5 2 2 2 1 1 1 3 3 2 3 5 8 8 9 9 14 13 7 5 2 3 4 7 8 12 6 7 5
5 7 8 9 9 10 9 9 11 12 5 1 2 2 3 8 2 1 2 3 2 3 4 4 5 3 2 2 2 2 2 1 2 4 3 2 5 5 5 8 8 9 7 10 8 9 9 8 8 9 8 9 7 7
6 7 8 9 10 11 8 7 9 4 1 3 3 3 3 2 1 1 3 3 4 4 3 3 4 6 4 2 2 2 2 2 3 1 2 3 4 5 6 7 9 7 7 10 11 10 7 8 8 8 6 7 8 7
6 8 9 10 11 10 6 6 8 7 5 1 1 2 1 2 1 4 4 3 2 2 3 1 4 2 1 1 1 1 2 4 1 1 3 5 4 6 6 6 10 10 9 7 8 8 8 8 7 8 8 6 8 7
8 9 10 11 12 6 6 6 7 3 0 2 2 4 3 4 4 2 3 2 3 5 7 3 4 2 1 1 2 2 2 2 2 1 4 3 4 7 7 5 6 10 6 7 7 8 9 9 8 7 6 7 8 8
9 10 11 12 10 8 6 5 4 1 2 3 2 4 5 4 1 2 3 2 4 5 2 3 3 1 2 2 2 3 2 2 4 3 4 4 6 5 6 6 9 10 10 3 2 4 5 6 7 7 6 6 6 6
10 11 4 7 9 7 6 3 1 1 2 3 4 4 4 2 3 2 1 8 4 4 2 1 2 2 1 3 1 4 4 4 2 3 3 4 5 6 5 6 7 6 7 7 3 4 5 7 7 6 6 6 6 6
7 2 8 5 6 5 6 1 2 3 4 4 4 4 4 3 5 4 3 4 2 3 3 2 3 1 2 3 1 1 1 2 3 3 2 3 3 4 5 4 5 4 5 6 6 4 4 5 6 5 6 6 7 8
3 2 10 5 4 3 1 2 2 3 5 5 3 3 3 3 3 4 4 2 0 1 1 3 1 1 3 2 1 3 3 3 4 1 3 4 3 3 3 3 4 5 4 5 5 4 1 6 6 6 6 4 4 4
3 5 8 6 2 1 2 3 2 4 6 3 4 3 3 4 5 8 5 3 3 2 2 1 2 3 4 3 3 2 3 0 3 2 4 2 5 4 6 5 3 4 4 4 4 3 3 5 5 4 4 5 6 5
9 10 10 7 4 1 3 2 2 3 4 3 2 3 4 5 3 3 4 3 4 3 2 4 4 4 4 3 4 4 3 3 2 3 6 4 4 4 3 4 4 3 3 4 3 2 4 2 3 4 5 6 6 6
2 3 2 4 2 3 3 2 3 4 4 3 2 2 5 2 4 3 3 4 3 4 4 5 4 5 5 4 3 3 4 3 4 4 4 3 4 4 4 4 4 3 3 3 3 4 4 3 4 2 4 6 6 5
3 4 1 1 1 2 3 3 3 3 3 4 4 2 4 3 3 3 2 2 4 5 5 4 6 8 6 6 7 5 6 4 5 4 4 1 4 4 4 3 2 3 3 3 4 4 4 3 4 3 3 3 4 4
2 2 2 2 3 2 5 2 2 3 3 4 2 3 3 3 4 1 2 3 3 3 3 4 6 5 7 4 1 5 6 6 5 5 3 4 4 4 4 4 2 3 3 2 1 2 3 4 4 4 3 3 2 1
1 2 2 2 3 4 2 3 3 3 3 3 3 4 3 3 2 1 2 1 3 3 4 7 4 4 2 2 3 5 3 5 5 4 4 3 3 4 2 2 2 2 2 3 2 2 3 3 4 4 4 3 4 3
0 3 3 4 3 3 4 3 3 2 3 4 3 3 4 1 2 2 2 1 2 2 4 5 5 4 2 3 3 3 2 3 3 4 4 5 2 2 1 3 1 1 2 2 2 2 2 2 2 2 3 3 3 2
3 4 6 3 3 3 3 3 5 5 4 3 4 4 2 3 2 3 3 2 1 1 3 4 4 5 4 2 3 2 3 2 2 3 2 3 3 3 1 3 3 4 2 2 1 2 3 2 3 3 2 4 6 5
4 5 4 3 1 2 3 5 4 3 4 4 4 2 1 3 4 1 2 1 2 2 3 4 4 4 4 5 3 3 4 3 3 1 3 3 2 1 3 3 0 3 2 1 3 3 3 3 3 3 3 2 2 3
4 3 5 2 3 3 4 3 3 4 4 4 2 1 3 3 3 2 3 2 5 5 5 5 5 4 6 4 3 2 3 3 2 3 5 6 4 3 4 3 3 7 3 3 3 3 4 4 4 4 5 5 5 3
4 2 1 4 4 4 5 6 5 4 3 1 2 3 3 2 5 9 10 7 7 6 5 4 2 2 2 2 2 1 1 3 2 9 8 3 4 5 5 4 4 4 3 3 6 3 5 5 5 5 6 5 5 4
5 4 4 4 4 6 5 5 3 2 1 2 1 3 6 6 8 8 5 4 4 4 3 3 1 3 3 4 4 7 5 4 3 4 4 3 0 2 3 3 4 4 4 4 4 4 6 3 3 3 3 3 2 3
2 4 3 4 4 5 5 3 2 1 2 5 5 6 7 5 4 1 1 2 3 1 4 4 5 3 3 5 6 6 4 5 6 7 5 3 1 2 3 3 3 3 3 4 4 4 4 3 4 5 6 7 8 7
4 7 5 4 4 3 2 3 2 4 4 3 2 3 3 2 3 3 3 2 1 3 4 4 5 3 3 3 3 4 8 4 4 4 5 4 4 4 4 4 4 4 4 4 4 4 5 5 4 5 6 8 8 9
3 3 3 2 2 3 2 2 2 2 3 2 2 1 1 1 2 2 2 2 2 1 3 3 4 4 6 7 7 5 6 4 6 8 9 9 8 7 4 4 4 5 6 6 6 7 8 8 8 10 10 10 10 10
Wind_Direction
271 276 291 298 310 314 316 322 324 327 321 325 330 333 331 327 335 1 269 212 255 273 281 244 260 263 314 85 262 311 335 350 343 95 120 203 160 238 269 167 201 161 147 180 114 101 230 169 67 146 211 153 167 173
264 277 283 297 305 311 315 317 320 323 320 319 332 335 335 336 320 294 277 249 173 232 261 294 264 247 237 245 248 257 267 292 250 334 289 137 117 72 202 229 109 255 184 176 171 205 242 216 194 218 176 156 192 167
253 263 281 295 306 313 317 316 316 314 313 323 323 326 328 328 317 285 257 267 261 261 276 263 249 259 233 226 213 227 254 241 238 194 222 176 111 119 191 216 207 226 183 127 130 260 236 210 212 205 191 198 185 200
255 273 285 293 302 307 314 315 318 314 314 311 319 322 324 321 323 320 255 227 244 287 281 280 293 277 266 197 204 218 240 347 345 42 105 128 57 152 279 278 186 206 160 142 333 287 292 228 226 195 199 167 141 153
260 274 284 288 299 306 308 313 315 314 318 324 318 316 319 321 315 290 236 227 225 251 289 292 299 273 239 209 202 209 216 229 354 338 343 215 162 47 243 233 249 191 166 149 209 198 156 204 206 182 181 215 219 208
263 275 282 285 297 302 306 312 314 311 312 303 307 309 312 317 329 305 314 139 202 189 273 296 284 292 300 177 188 201 194 175 206 175 218 227 250 67 316 274 281 307 160 182 186 164 143 52 205 167 213 241 249 227
270 280 283 288 289 298 302 311 314 313 308 303 303 300 297 298 349 233 220 52 133 293 262 293 295 272 283 135 119 110 155 188 161 224 216 185 176 163 185 245 243 350 272 160 109 111 45 199 213 215 218 234 132 35
277 283 287 290 291 292 295 305 312 310 303 304 305 297 288 282 265 274 252 225 195 284 273 281 278 318 353 11 89 86 134 214 172 221 287 171 118 162 204 250 291 308 314 240 211 219 261 84 131 201 150 123 237 246
274 283 291 293 298 301 298 299 309 307 301 295 298 300 331 132 217 241 0 112 158 202 280 253 279 288 354 13 142 36 159 168 110 212 232 119 167 206 214 216 213 238 233 246 80 134 158 187 205 191 192 193 220 226
273 280 288 292 301 309 305 299 308 306 303 309 17 35 257 214 300 266 321 92 193 209 230 249 290 273 357 353 309 143 46 143 173 244 95 171 245 241 215 212 205 206 223 157 127 192 176 231 208 199 213 213 216 177
285 293 294 293 297 296 304 303 313 322 322 343 342 261 304 325 28 36 264 193 172 237 215 233 214 241 262 215 257 44 203 240 147 253 162 248 273 260 340 241 239 233 214 209 212 222 195 189 186 203 217 212 187 178
293 295 295 294 291 291 297 298 316 323 316 307 275 299 313 338 180 241 234 210 209 241 189 224 233 201 262 174 166 234 173 64 234 183 94 270 262 275 321 310 298 277 241 218 203 216 214 212 204 201 202 194 193 174
298 293 292 289 284 284 287 296 301 298 305 8 242 249 244 227 244 225 224 216 284 266 232 247 286 227 307 122 60 120 117 231 30 59 238 241 265 297 312 310 296 281 238 235 216 206 204 219 183 183 199 185 154 174
293 293 292 289 284 272 277 288 298 315 319 256 247 291 218 225 243 56 359 6 307 270 297 310 258 256 213 165 168 161 231 73 39 325 248 264 279 301 307 322 333 329 297 203 213 200 206 199 201 189 186 154 162 185
300 297 291 286 265 245 253 268 278 230 264 262 245 246 235 250 217 136 235 295 255 269 276 300 269 22 309 244 205 106 123 239 208 229 247 272 292 297 312 345 346 345 320 87 90 155 166 174 178 198 171 159 166 153
315 309 255 260 258 237 219 227 200 234 244 240 236 254 248 237 12 291 152 262 284 308 273 177 265 178 259 308 238 211 152 216 235 234 266 303 330 344 316 323 312 310 322 323 46 130 161 173 184 186 138 159 171 169
319 257 309 342 126 160 171 192 211 230 255 240 246 235 252 266 236 252 234 243 291 330 312 340 339 282 278 247 225 80 157 244 265 279 230 239 286 313 323 316 323 308 326 351 354 354 144 148 129 127 186 210 187 193
246 312 7 125 121 137 163 236 261 249 249 237 229 240 210 231 248 246 246 218 112 294 280 246 28 320 257 269 234 234 223 248 232 305 299 304 333 296 289 291 288 286 313 329 342 1 164 143 166 208 220 164 158 184
282 309 322 328 247 269 219 220 220 263 247 253 257 243 232 248 238 248 249 226 186 203 272 290 249 230 245 228 245 285 301 306 266 282 275 310 305 325 318 313 315 311 310 311 307 302 244 199 216 187 171 156 207 200
255 269 275 280 213 267 262 245 198 245 266 252 248 260 224 227 239 228 231 191 157 183 206 222 221 221 202 220 197 212 233 263 250 309 306 325 339 335 330 323 314 306 307 307 312 298 292 288 198 186 176 187 185 207
214 245 156 149 197 224 268 298 272 232 285 276 257 230 260 286 258 237 239 142 143 197 222 218 220 246 225 234 225 240 270 221 231 210 249 300 310 286 281 267 267 312 349 345 348 339 4 306 306 249 185 199 206 189
226 187 142 211 267 234 257 214 224 269 275 260 302 215 276 281 263 231 143 149 217 222 207 204 225 230 243 247 247 200 250 238 249 253 243 189 274 295 299 283 301 288 306 308 327 327 327 340 329 306 258 235 188 181
298 162 206 180 242 207 264 164 244 232 257 263 299 267 249 257 237 111 253 210 242 247 272 273 266 240 231 249 174 243 226 228 253 248 241 227 246 260 272 291 277 250 279 301 262 7 7 332 21 30 11 27 29 267
322 237 230 235 200 266 282 245 224 270 265 257 239 262 264 237 307 179 244 253 257 314 337 336 321 294 296 221 233 257 245 203 237 252 220 202 266 284 245 275 224 200 219 302 275 299 318 322 344 7 355 3 16 8
342 246 135 266 241 238 246 254 238 285 301 300 268 269 270 335 259 242 187 275 300 312 349 334 335 354 289 279 279 277 282 185 197 231 240 199 210 347 99 227 285 237 196 225 268 282 305 329 320 297 298 295 277 250
256 208 182 232 213 199 250 267 190 226 242 254 241 261 287 268 259 251 170 197 254 297 304 328 321 323 330 334 313 306 309 295 238 198 270 169 154 145 37 355 326 308 202 204 107 331 306 291 295 305 259 229 209 214
237 244 212 223 249 308 268 252 245 251 259 247 251 280 323 271 253 223 123 220 267 273 258 279 279 289 291 298 289 280 302 306 235 207 124 101 57 119 144 164 56 267 321 167 184 222 265 287 284 289 298 293 267 259
253 280 213 215 206 222 261 273 260 242 242 241 289 262 260 258 282 281 232 287 296 299 281 275 253 242 250 253 263 307 325 16 86 85 110 73 57 44 28 14 18 19 3 320 290 286 264 253 260 273 276 275 281 272
241 232 171 247 228 242 224 216 237 242 237 73 324 268 266 277 313 295 292 290 285 279 277 278 263 187 251 321 355 322 144 77 93 81 69 41 10 7 5 12 17 14 3 5 8 351 309 273 263 260 267 268 273 277
239 180 207 238 218 223 238 192 239 265 269 242 266 323 277 271 254 249 248 234 244 247 246 249 230 137 127 118 94 56 27 37 54 106 108 92 88 294 310 334 352 356 357 9 4 344 354 15 4 15 336 343 325 298
221 163 221 232 253 241 236 241 253 281 278 268 254 253 273 296 298 184 227 272 262 190 120 96 78 75 123 121 105 97 68 11 48 65 75 89 29 358 0 358 350 354 2 7 12 8 356 353 348 343 340 339 333 332
194 204 200 229 255 275 244 237 191 199 232 254 244 183 229 208 282 323 5 68 327 247 82 113 125 131 86 95 86 83 90 103 69 53 56 54 32 11 359 351 349 357 4 6 5 356 351 346 333 332 324 321 318 316
196 187 198 239 267 245 242 261 260 271 235 258 279 282 98 105 271 325 347 16 208 215 110 87 91 103 101 90 90 82 70 73 61 49 58 65 63 41 25 9 8 18 26 26 21 10 7 359 351 342 330 320 312 310